Location: Unspecified
(40.7945°N, 111.1337°W)
Time: 11:34:04
(UTC-06:00)

Vanguard 1 - Pass Details

Date: 26 June 2019
Orbit: 653 x 3830 km, 34.3° (Epoch: 20 July)

Event Time Altitude Azimuth Distance (km) Brightness Sun altitude
Rises 22:32:55 0° 181° (S) 7,655 14.2 -14.1°
Enters shadow 22:39:09 - 169° (SSE) 7,098 13.9 -14.9°
Reaches altitude 10° 22:41:52 10° 163° (SSE) 6,888 - -15.2°
Maximum altitude 22:53:05 16° 133° (SE) 6,346 - -16.5°
Exits shadow 22:56:25 15° 124° (ESE) 6,311 13.6 -16.9°
Drops below altitude 10° 23:03:31 10° 104° (ESE) 6,472 13.8 -17.7°
Sets 23:11:04 0° 86° (E) 7,004 14.1 -18.5°
